Language: 


Des rapports , des résumés tant et plus, au choix de chacun....


Données Historiques de Météogheer
Journalier Rapport pour Aoûut 22, 2019 Unitée:  Métrique    Impériale   Les deux
Suivant Jour »
Journalier Hebdomadaire Mensuel Annuel Sur mesure
  Max: Min: Moyenne:
Température: 26.5 °C 8.0 °C 16.7 °C
Point de rosée: 13.0 °C 5.0 °C 7.7 °C
Humidité: 88% 27% 60%
Vent: 16.3km/h 0.0km/h 3km/h
Rafales: 16.9km/h - -
Vent- - WSW
Pression: 1024.0 hPa 1022.0 hPa -
Pluie: 0.0 mm    
Historical Graphs
 
 
Données tabulaires pour Aoûut 22, 2019
Heure Température Point de rosée Pression Vent Vent Rafales Humidité Pluie Taux (Horaire) Conditions
00:00 14.5 °C 10.0 °C 1023.0 hPa Calm     74% 0.0 mm
00:05 14.3 °C 10.0 °C 1023.0 hPa Calm     74% 0.0 mm
00:10 14.2 °C 10.0 °C 1023.0 hPa Calm     73% 0.0 mm
00:15 13.8 °C 9.0 °C 1023.0 hPa Calm     72% 0.0 mm
00:20 13.6 °C 9.0 °C 1023.0 hPa Calm     73% 0.0 mm
00:25 13.3 °C 9.0 °C 1023.0 hPa Calm     73% 0.0 mm
00:30 13.1 °C 9.0 °C 1023.0 hPa Calm     73% 0.0 mm
00:35 12.9 °C 9.0 °C 1023.0 hPa Calm   5.0 km/h 73% 0.0 mm
00:40 12.8 °C 9.0 °C 1023.0 hPa Calm   5.0 km/h 75% 0.0 mm
00:45 12.7 °C 9.0 °C 1023.0 hPa Calm     74% 0.0 mm
00:50 12.5 °C 9.0 °C 1023.0 hPa Calm     75% 0.0 mm
00:55 12.3 °C 8.0 °C 1023.0 hPa Calm     74% 0.0 mm
01:00 12.2 °C 8.0 °C 1023.0 hPa Calm     74% 0.0 mm
01:05 12.0 °C 8.0 °C 1023.0 hPa Calm     75% 0.0 mm
01:10 11.8 °C 8.0 °C 1022.0 hPa Calm     76% 0.0 mm
01:15 11.5 °C 8.0 °C 1022.0 hPa Calm     75% 0.0 mm
01:20 11.2 °C 7.0 °C 1022.0 hPa Calm     75% 0.0 mm
01:25 11.0 °C 7.0 °C 1023.0 hPa Calm     74% 0.0 mm
01:30 10.7 °C 6.0 °C 1023.0 hPa Calm     74% 0.0 mm
01:35 10.5 °C 6.0 °C 1023.0 hPa Calm     74% 0.0 mm
01:40 10.3 °C 6.0 °C 1023.0 hPa Calm     75% 0.0 mm
01:45 10.0 °C 6.0 °C 1023.0 hPa Calm     74% 0.0 mm
01:50 10.0 °C 6.0 °C 1023.0 hPa Calm     75% 0.0 mm
01:55 10.0 °C 6.0 °C 1023.0 hPa Calm     76% 0.0 mm
02:00 9.9 °C 6.0 °C 1023.0 hPa Calm     76% 0.0 mm
02:05 9.6 °C 6.0 °C 1023.0 hPa Calm     75% 0.0 mm
02:10 9.5 °C 6.0 °C 1023.0 hPa Calm     75% 0.0 mm
02:15 9.4 °C 6.0 °C 1023.0 hPa Calm     76% 0.0 mm
02:20 9.2 °C 6.0 °C 1023.0 hPa Calm     76% 0.0 mm
02:25 9.1 °C 5.0 °C 1023.0 hPa Calm     76% 0.0 mm
02:30 9.0 °C 5.0 °C 1023.0 hPa Calm     76% 0.0 mm
02:35 8.8 °C 6.0 °C 1023.0 hPa Calm     78% 0.0 mm
02:40 8.6 °C 5.0 °C 1022.0 hPa Calm     76% 0.0 mm
02:45 8.5 °C 5.0 °C 1022.0 hPa Calm     78% 0.0 mm
02:50 8.6 °C 5.0 °C 1022.0 hPa Calm     78% 0.0 mm
02:55 8.5 °C 5.0 °C 1023.0 hPa Calm     78% 0.0 mm
03:00 8.5 °C 5.0 °C 1023.0 hPa Calm     78% 0.0 mm
03:05 8.4 °C 5.0 °C 1023.0 hPa Calm     79% 0.0 mm
03:10 8.5 °C 6.0 °C 1023.0 hPa Calm     79% 0.0 mm
03:15 8.7 °C 6.0 °C 1023.0 hPa Calm     80% 0.0 mm
03:20 8.7 °C 6.0 °C 1023.0 hPa Calm     81% 0.0 mm
03:25 8.7 °C 6.0 °C 1023.0 hPa Calm     80% 0.0 mm
03:30 8.7 °C 6.0 °C 1023.0 hPa Calm     81% 0.0 mm
03:35 8.6 °C 6.0 °C 1023.0 hPa Calm     81% 0.0 mm
03:40 8.4 °C 6.0 °C 1023.0 hPa Calm     81% 0.0 mm
03:45 8.3 °C 6.0 °C 1023.0 hPa Calm     81% 0.0 mm
03:50 8.3 °C 6.0 °C 1023.0 hPa Calm     81% 0.0 mm
03:55 8.5 °C 6.0 °C 1023.0 hPa Calm     82% 0.0 mm
04:00 8.5 °C 6.0 °C 1023.0 hPa Calm     82% 0.0 mm
04:05 8.5 °C 6.0 °C 1023.0 hPa Calm     82% 0.0 mm
04:10 8.7 °C 6.0 °C 1023.0 hPa Calm   3.5 km/h 84% 0.0 mm
04:15 8.7 °C 7.0 °C 1023.0 hPa Calm   4.0 km/h 87% 0.0 mm
04:20 8.9 °C 7.0 °C 1023.0 hPa Calm   4.0 km/h 88% 0.0 mm
04:25 8.7 °C 7.0 °C 1022.0 hPa Calm     88% 0.0 mm
04:30 8.6 °C 7.0 °C 1022.0 hPa Calm     88% 0.0 mm
04:35 8.5 °C 7.0 °C 1022.0 hPa Calm     88% 0.0 mm
04:40 8.5 °C 7.0 °C 1023.0 hPa Calm     88% 0.0 mm
04:45 8.6 °C 7.0 °C 1023.0 hPa Calm     87% 0.0 mm
04:50 8.6 °C 7.0 °C 1023.0 hPa Calm     87% 0.0 mm
04:55 8.5 °C 7.0 °C 1022.0 hPa Calm     87% 0.0 mm
05:00 8.5 °C 7.0 °C 1022.0 hPa Calm     87% 0.0 mm
05:05 8.4 °C 7.0 °C 1022.0 hPa Calm     87% 0.0 mm
05:10 8.3 °C 6.0 °C 1022.0 hPa Calm     86% 0.0 mm
05:15 8.3 °C 6.0 °C 1022.0 hPa Calm     86% 0.0 mm
05:20 8.4 °C 6.0 °C 1022.0 hPa Calm     86% 0.0 mm
05:25 8.4 °C 6.0 °C 1022.0 hPa Calm     86% 0.0 mm
05:30 8.4 °C 6.0 °C 1022.0 hPa Calm     86% 0.0 mm
05:35 8.4 °C 6.0 °C 1022.0 hPa Calm     86% 0.0 mm
05:40 8.5 °C 7.0 °C 1022.0 hPa Calm     87% 0.0 mm
05:45 8.4 °C 7.0 °C 1022.0 hPa Calm     87% 0.0 mm
05:50 8.3 °C 6.0 °C 1022.0 hPa Calm     86% 0.0 mm
05:55 8.1 °C 6.0 °C 1022.0 hPa Calm     86% 0.0 mm
06:00 8.0 °C 6.0 °C 1022.0 hPa Calm     86% 0.0 mm
06:05 8.1 °C 6.0 °C 1022.0 hPa Calm     86% 0.0 mm
06:10 8.1 °C 6.0 °C 1022.0 hPa Calm     86% 0.0 mm
06:15 8.0 °C 6.0 °C 1022.0 hPa Calm     86% 0.0 mm
06:20 8.0 °C 6.0 °C 1022.0 hPa Calm     86% 0.0 mm
06:25 8.0 °C 6.0 °C 1022.0 hPa Calm     86% 0.0 mm
06:30 8.2 °C 6.0 °C 1022.0 hPa Calm     86% 0.0 mm
06:35 8.2 °C 6.0 °C 1022.0 hPa Calm     86% 0.0 mm
06:40 8.2 °C 6.0 °C 1023.0 hPa Calm     86% 0.0 mm
06:45 8.1 °C 6.0 °C 1023.0 hPa Calm     86% 0.0 mm
06:50 8.0 °C 6.0 °C 1023.0 hPa Calm     86% 0.0 mm
06:55 8.0 °C 6.0 °C 1023.0 hPa Calm     86% 0.0 mm
07:00 8.0 °C 6.0 °C 1023.0 hPa Calm     86% 0.0 mm
07:05 8.1 °C 6.0 °C 1023.0 hPa Calm     86% 0.0 mm
07:10 8.3 °C 6.0 °C 1023.0 hPa Calm     86% 0.0 mm
07:15 8.4 °C 7.0 °C 1023.0 hPa Calm     87% 0.0 mm
07:20 8.4 °C 7.0 °C 1023.0 hPa Calm     87% 0.0 mm
07:25 8.5 °C 7.0 °C 1023.0 hPa Calm     87% 0.0 mm
07:30 8.7 °C 7.0 °C 1023.0 hPa Calm     87% 0.0 mm
07:35 9.0 °C 7.0 °C 1023.0 hPa Calm     87% 0.0 mm
07:40 9.3 °C 8.0 °C 1023.0 hPa Calm     87% 0.0 mm
07:45 9.4 °C 8.0 °C 1023.0 hPa Calm     87% 0.0 mm
07:50 9.7 °C 8.0 °C 1023.0 hPa Calm     87% 0.0 mm
07:55 9.9 °C 8.0 °C 1023.0 hPa Calm     87% 0.0 mm
08:00 10.1 °C 8.0 °C 1023.0 hPa Calm     87% 0.0 mm
08:05 10.5 °C 9.0 °C 1023.0 hPa Calm     87% 0.0 mm
08:10 10.8 °C 9.0 °C 1024.0 hPa Calm     87% 0.0 mm
08:15 11.1 °C 9.0 °C 1024.0 hPa Calm     87% 0.0 mm
08:20 11.3 °C 9.0 °C 1024.0 hPa Calm     87% 0.0 mm
08:25 11.4 °C 9.0 °C 1023.0 hPa Calm     87% 0.0 mm
08:30 11.8 °C 10.0 °C 1023.0 hPa Calm     87% 0.0 mm
08:35 12.1 °C 10.0 °C 1023.0 hPa Calm     87% 0.0 mm
08:40 12.5 °C 11.0 °C 1023.0 hPa Calm     87% 0.0 mm
08:45 12.7 °C 11.0 °C 1023.0 hPa Calm     87% 0.0 mm
08:50 12.9 °C 11.0 °C 1023.0 hPa Calm     86% 0.0 mm
08:55 13.6 °C 12.0 °C 1023.0 hPa Calm     86% 0.0 mm
09:00 13.7 °C 11.0 °C 1023.0 hPa Calm     83% 0.0 mm
09:05 14.1 °C 11.0 °C 1023.0 hPa Calm     83% 0.0 mm
09:10 14.4 °C 12.0 °C 1023.0 hPa Calm     82% 0.0 mm
09:15 14.7 °C 12.0 °C 1023.0 hPa Calm     81% 0.0 mm
09:20 14.7 °C 11.0 °C 1023.0 hPa Calm     78% 0.0 mm
09:25 15.1 °C 12.0 °C 1023.0 hPa Calm     79% 0.0 mm
09:30 15.6 °C 12.0 °C 1023.0 hPa Calm     79% 0.0 mm
09:35 15.7 °C 12.0 °C 1023.0 hPa Calm     78% 0.0 mm
09:40 15.9 °C 12.0 °C 1023.0 hPa Calm     75% 0.0 mm
09:45 16.1 °C 12.0 °C 1023.0 hPa Calm     76% 0.0 mm
09:50 16.7 °C 13.0 °C 1023.0 hPa Calm     75% 0.0 mm
09:55 17.1 °C 12.0 °C 1023.0 hPa Calm     71% 0.0 mm
10:00 17.9 °C 13.0 °C 1023.0 hPa Calm     71% 0.0 mm
10:05 18.5 °C 13.0 °C 1023.0 hPa Calm     68% 0.0 mm
10:10 18.7 °C 12.0 °C 1023.0 hPa WSW 4.0 km/h 4.0 km/h 66% 0.0 mm
10:15 18.8 °C 12.0 °C 1023.0 hPa Calm   4.0 km/h 64% 0.0 mm
10:20 19.2 °C 12.0 °C 1023.0 hPa Calm   4.0 km/h 63% 0.0 mm
10:25 20.1 °C 13.0 °C 1023.0 hPa Calm   1.4 km/h 62% 0.0 mm
10:30 20.2 °C 12.0 °C 1023.0 hPa West 4.7 km/h 4.7 km/h 59% 0.0 mm
10:35 19.9 °C 12.0 °C 1023.0 hPa West 4.7 km/h 4.7 km/h 58% 0.0 mm
10:40 19.9 °C 12.0 °C 1023.0 hPa West 4.7 km/h 4.7 km/h 59% 0.0 mm
10:45 20.1 °C 12.0 °C 1023.0 hPa Calm   4.7 km/h 58% 0.0 mm
10:50 20.6 °C 12.0 °C 1023.0 hPa Calm   4.7 km/h 57% 0.0 mm
10:55 21.2 °C 12.0 °C 1023.0 hPa WNW 6.9 km/h 6.9 km/h 55% 0.0 mm
11:00 21.2 °C 11.0 °C 1023.0 hPa SSW 7.9 km/h 7.9 km/h 51% 0.0 mm
11:05 21.6 °C 12.0 °C 1023.0 hPa West 5.5 km/h 7.9 km/h 52% 0.0 mm
11:10 22.0 °C 12.0 °C 1023.0 hPa SW 3.5 km/h 7.9 km/h 51% 0.0 mm
11:15 21.8 °C 11.0 °C 1023.0 hPa Calm   10.8 km/h 50% 0.0 mm
11:20 21.3 °C 11.0 °C 1023.0 hPa South 2.6 km/h 10.8 km/h 51% 0.0 mm
11:25 21.5 °C 11.0 °C 1023.0 hPa SW 3.2 km/h 4.7 km/h 51% 0.0 mm
11:30 21.5 °C 10.0 °C 1023.0 hPa WSW 7.6 km/h 10.5 km/h 46% 0.0 mm
11:35 21.6 °C 9.0 °C 1023.0 hPa WSW 5.5 km/h 10.5 km/h 44% 0.0 mm
11:40 21.7 °C 9.0 °C 1023.0 hPa SW 6.4 km/h 9.3 km/h 45% 0.0 mm
11:45 22.0 °C 10.0 °C 1023.0 hPa Calm   9.3 km/h 45% 0.0 mm
11:50 22.2 °C 10.0 °C 1023.0 hPa WSW 6.9 km/h 6.9 km/h 45% 0.0 mm
11:55 22.2 °C 10.0 °C 1023.0 hPa Calm   6.9 km/h 45% 0.0 mm
12:00 22.5 °C 10.0 °C 1023.0 hPa WSW 2.1 km/h 9.3 km/h 44% 0.0 mm
12:05 22.6 °C 9.0 °C 1023.0 hPa Calm   9.3 km/h 42% 0.0 mm
12:10 22.6 °C 10.0 °C 1023.0 hPa WSW 7.2 km/h 7.2 km/h 44% 0.0 mm
12:15 22.6 °C 9.0 °C 1023.0 hPa SSW 6.4 km/h 9.7 km/h 42% 0.0 mm
12:20 22.9 °C 10.0 °C 1023.0 hPa West 7.6 km/h 10.1 km/h 44% 0.0 mm
12:25 23.2 °C 9.0 °C 1023.0 hPa WNW 2.1 km/h 10.1 km/h 41% 0.0 mm
12:30 23.3 °C 9.0 °C 1023.0 hPa South 5.0 km/h 9.7 km/h 41% 0.0 mm
12:35 23.2 °C 9.0 °C 1023.0 hPa WSW 6.1 km/h 9.7 km/h 41% 0.0 mm
12:40 23.0 °C 9.0 °C 1023.0 hPa WSW 11.9 km/h 11.9 km/h 39% 0.0 mm
12:45 23.1 °C 8.0 °C 1023.0 hPa WSW 6.4 km/h 11.9 km/h 38% 0.0 mm
12:50 23.5 °C 9.0 °C 1023.0 hPa WSW 6.4 km/h 11.9 km/h 39% 0.0 mm
12:55 23.5 °C 9.0 °C 1023.0 hPa WSW 6.4 km/h 6.4 km/h 39% 0.0 mm
13:00 23.5 °C 9.0 °C 1023.0 hPa SW 4.7 km/h 10.5 km/h 38% 0.0 mm
13:05 23.7 °C 9.0 °C 1023.0 hPa WSW 4.3 km/h 10.5 km/h 38% 0.0 mm
13:10 24.1 °C 9.0 °C 1023.0 hPa ESE 5.0 km/h 6.1 km/h 38% 0.0 mm
13:15 23.9 °C 9.0 °C 1023.0 hPa ESE 5.0 km/h 5.0 km/h 38% 0.0 mm
13:20 23.9 °C 9.0 °C 1023.0 hPa West 10.1 km/h 10.1 km/h 38% 0.0 mm
13:25 24.2 °C 10.0 °C 1023.0 hPa West 10.1 km/h 10.1 km/h 40% 0.0 mm
13:30 24.4 °C 10.0 °C 1023.0 hPa WNW 5.8 km/h 10.1 km/h 39% 0.0 mm
13:35 24.4 °C 10.0 °C 1023.0 hPa SSW 8.7 km/h 10.1 km/h 39% 0.0 mm
13:40 24.4 °C 10.0 °C 1023.0 hPa SSW 8.7 km/h 8.7 km/h 40% 0.0 mm
13:45 24.7 °C 9.0 °C 1023.0 hPa West 9.7 km/h 9.7 km/h 38% 0.0 mm
13:50 24.6 °C 9.0 °C 1023.0 hPa West 9.7 km/h 9.7 km/h 38% 0.0 mm
13:55 24.8 °C 9.0 °C 1023.0 hPa West 9.7 km/h 9.7 km/h 38% 0.0 mm
14:00 24.7 °C 9.0 °C 1023.0 hPa WNW 15.8 km/h 15.8 km/h 37% 0.0 mm
14:05 25.1 °C 9.0 °C 1023.0 hPa WSW 12.6 km/h 15.8 km/h 35% 0.0 mm
14:10 25.1 °C 9.0 °C 1023.0 hPa Calm   15.8 km/h 36% 0.0 mm
14:15 25.2 °C 9.0 °C 1023.0 hPa NNW 7.6 km/h 12.6 km/h 36% 0.0 mm
14:20 25.1 °C 9.0 °C 1023.0 hPa WSW 10.5 km/h 10.5 km/h 35% 0.0 mm
14:25 25.2 °C 8.0 °C 1023.0 hPa WSW 4.0 km/h 13.0 km/h 33% 0.0 mm
14:30 25.3 °C 8.0 °C 1023.0 hPa West 4.0 km/h 13.0 km/h 33% 0.0 mm
14:35 25.3 °C 7.0 °C 1023.0 hPa WNW 16.3 km/h 16.3 km/h 31% 0.0 mm
14:40 25.4 °C 7.0 °C 1023.0 hPa West 5.8 km/h 16.3 km/h 31% 0.0 mm
14:45 25.3 °C 6.0 °C 1023.0 hPa West 6.1 km/h 16.3 km/h 29% 0.0 mm
14:50 25.6 °C 6.0 °C 1023.0 hPa West 6.1 km/h 6.1 km/h 29% 0.0 mm
14:55 25.5 °C 7.0 °C 1023.0 hPa West 4.3 km/h 6.4 km/h 30% 0.0 mm
15:00 25.2 °C 7.0 °C 1023.0 hPa West 4.3 km/h 6.4 km/h 30% 0.0 mm
15:05 25.3 °C 6.0 °C 1023.0 hPa West 4.3 km/h 4.3 km/h 29% 0.0 mm
15:10 25.0 °C 6.0 °C 1023.0 hPa West 4.3 km/h 4.3 km/h 28% 0.0 mm
15:15 25.3 °C 6.0 °C 1023.0 hPa SW 9.0 km/h 16.9 km/h 29% 0.0 mm
15:20 25.1 °C 6.0 °C 1023.0 hPa SW 9.0 km/h 16.9 km/h 28% 0.0 mm
15:25 25.5 °C 6.0 °C 1023.0 hPa SW 9.0 km/h 9.0 km/h 27% 0.0 mm
15:30 25.5 °C 6.0 °C 1023.0 hPa SW 9.0 km/h 9.0 km/h 27% 0.0 mm
15:35 25.4 °C 5.0 °C 1023.0 hPa WSW 6.4 km/h 9.0 km/h 27% 0.0 mm
15:40 25.3 °C 6.0 °C 1023.0 hPa WSW 14.0 km/h 14.0 km/h 28% 0.0 mm
15:45 25.5 °C 6.0 °C 1023.0 hPa WSW 1.8 km/h 14.0 km/h 29% 0.0 mm
15:50 25.9 °C 7.0 °C 1023.0 hPa West 6.9 km/h 14.0 km/h 29% 0.0 mm
15:55 26.2 °C 7.0 °C 1023.0 hPa West 6.1 km/h 10.1 km/h 29% 0.0 mm
16:00 26.5 °C 7.0 °C 1023.0 hPa West 6.1 km/h 6.9 km/h 28% 0.0 mm
16:05 26.2 °C 7.0 °C 1023.0 hPa NW 9.7 km/h 9.7 km/h 28% 0.0 mm
16:10 26.0 °C 6.0 °C 1022.0 hPa NW 9.7 km/h 9.7 km/h 28% 0.0 mm
16:15 25.8 °C 6.0 °C 1022.0 hPa WSW 9.3 km/h 13.7 km/h 29% 0.0 mm
16:20 25.7 °C 6.0 °C 1022.0 hPa WSW 8.7 km/h 13.7 km/h 29% 0.0 mm
16:25 25.9 °C 7.0 °C 1022.0 hPa West 7.2 km/h 9.3 km/h 29% 0.0 mm
16:30 25.9 °C 7.0 °C 1022.0 hPa West 4.3 km/h 8.7 km/h 30% 0.0 mm
16:35 25.9 °C 7.0 °C 1022.0 hPa West 5.0 km/h 7.2 km/h 29% 0.0 mm
16:40 26.2 °C 8.0 °C 1022.0 hPa West 5.0 km/h 5.0 km/h 30% 0.0 mm
16:45 26.2 °C 7.0 °C 1022.0 hPa West 5.8 km/h 6.4 km/h 29% 0.0 mm
16:50 25.8 °C 6.0 °C 1022.0 hPa West 5.8 km/h 6.4 km/h 29% 0.0 mm
16:55 26.1 °C 7.0 °C 1022.0 hPa West 9.7 km/h 9.7 km/h 29% 0.0 mm
17:00 26.1 °C 7.0 °C 1022.0 hPa West 9.7 km/h 9.7 km/h 29% 0.0 mm
17:05 25.8 °C 6.0 °C 1022.0 hPa West 9.7 km/h 9.7 km/h 29% 0.0 mm
17:10 26.0 °C 7.0 °C 1022.0 hPa NNW 6.1 km/h 9.7 km/h 29% 0.0 mm
17:15 26.0 °C 6.0 °C 1022.0 hPa NNW 6.1 km/h 9.7 km/h 28% 0.0 mm
17:20 25.5 °C 6.0 °C 1022.0 hPa NNW 6.1 km/h 6.1 km/h 29% 0.0 mm
17:25 25.3 °C 6.0 °C 1022.0 hPa NNW 6.1 km/h 6.1 km/h 29% 0.0 mm
17:30 25.5 °C 6.0 °C 1022.0 hPa WNW 5.5 km/h 10.1 km/h 29% 0.0 mm
17:35 25.3 °C 6.0 °C 1022.0 hPa SW 11.6 km/h 16.9 km/h 29% 0.0 mm
17:40 25.5 °C 6.0 °C 1022.0 hPa WSW 7.9 km/h 16.9 km/h 28% 0.0 mm
17:45 25.2 °C 6.0 °C 1022.0 hPa WSW 13.0 km/h 13.0 km/h 29% 0.0 mm
17:50 25.0 °C 6.0 °C 1022.0 hPa SW 9.7 km/h 13.0 km/h 30% 0.0 mm
17:55 24.9 °C 7.0 °C 1022.0 hPa West 6.4 km/h 13.0 km/h 31% 0.0 mm
18:00 25.0 °C 6.0 °C 1022.0 hPa WSW 5.5 km/h 9.7 km/h 30% 0.0 mm
18:05 25.0 °C 6.0 °C 1022.0 hPa WSW 5.5 km/h 6.4 km/h 30% 0.0 mm
18:10 25.0 °C 6.0 °C 1022.0 hPa West 7.6 km/h 7.6 km/h 30% 0.0 mm
18:15 25.0 °C 6.0 °C 1022.0 hPa WNW 13.0 km/h 13.0 km/h 29% 0.0 mm
18:20 24.8 °C 7.0 °C 1022.0 hPa West 8.7 km/h 13.0 km/h 31% 0.0 mm
18:25 24.8 °C 7.0 °C 1022.0 hPa SW 9.0 km/h 13.0 km/h 32% 0.0 mm
18:30 24.7 °C 7.0 °C 1022.0 hPa WSW 12.6 km/h 12.6 km/h 31% 0.0 mm
18:35 24.5 °C 7.0 °C 1022.0 hPa West 9.0 km/h 13.0 km/h 31% 0.0 mm
18:40 24.6 °C 7.0 °C 1022.0 hPa SW 5.0 km/h 13.0 km/h 32% 0.0 mm
18:45 24.5 °C 7.0 °C 1022.0 hPa SW 15.8 km/h 15.8 km/h 32% 0.0 mm
18:50 24.3 °C 7.0 °C 1022.0 hPa WSW 9.0 km/h 15.8 km/h 32% 0.0 mm
18:55 24.1 °C 6.0 °C 1023.0 hPa WSW 9.0 km/h 15.8 km/h 32% 0.0 mm
19:00 24.0 °C 6.0 °C 1023.0 hPa WSW 9.0 km/h 10.5 km/h 32% 0.0 mm
19:05 23.7 °C 6.0 °C 1023.0 hPa WSW 9.0 km/h 9.0 km/h 32% 0.0 mm
19:10 23.8 °C 6.0 °C 1022.0 hPa WNW 10.5 km/h 10.5 km/h 32% 0.0 mm
19:15 23.6 °C 7.0 °C 1022.0 hPa WSW 8.7 km/h 10.5 km/h 33% 0.0 mm
19:20 23.4 °C 6.0 °C 1022.0 hPa West 6.4 km/h 15.4 km/h 32% 0.0 mm
19:25 23.2 °C 6.0 °C 1022.0 hPa SW 9.3 km/h 15.4 km/h 33% 0.0 mm
19:30 23.1 °C 6.0 °C 1023.0 hPa WNW 9.7 km/h 13.0 km/h 33% 0.0 mm
19:35 23.1 °C 6.0 °C 1023.0 hPa WSW 8.7 km/h 12.6 km/h 34% 0.0 mm
19:40 23.0 °C 7.0 °C 1023.0 hPa SW 12.6 km/h 12.6 km/h 35% 0.0 mm
19:45 22.6 °C 7.0 °C 1023.0 hPa West 5.5 km/h 12.6 km/h 37% 0.0 mm
19:50 22.0 °C 7.0 °C 1023.0 hPa West 5.5 km/h 11.6 km/h 38% 0.0 mm
19:55 21.6 °C 7.0 °C 1023.0 hPa WSW 11.1 km/h 11.9 km/h 39% 0.0 mm
20:00 21.4 °C 7.0 °C 1023.0 hPa West 5.0 km/h 11.9 km/h 39% 0.0 mm
20:05 21.2 °C 7.0 °C 1023.0 hPa West 5.0 km/h 11.1 km/h 40% 0.0 mm
20:10 21.0 °C 7.0 °C 1024.0 hPa WSW 6.9 km/h 6.9 km/h 41% 0.0 mm
20:15 20.7 °C 8.0 °C 1024.0 hPa WSW 6.9 km/h 7.6 km/h 43% 0.0 mm
20:20 20.5 °C 8.0 °C 1024.0 hPa SW 3.2 km/h 7.6 km/h 44% 0.0 mm
20:25 20.3 °C 8.0 °C 1024.0 hPa SW 4.3 km/h 5.8 km/h 45% 0.0 mm
20:30 20.1 °C 8.0 °C 1023.0 hPa WSW 5.0 km/h 6.4 km/h 46% 0.0 mm
20:35 19.9 °C 8.0 °C 1023.0 hPa WSW 2.1 km/h 6.4 km/h 46% 0.0 mm
20:40 19.6 °C 8.0 °C 1023.0 hPa WSW 2.1 km/h 5.0 km/h 47% 0.0 mm
20:45 19.4 °C 8.0 °C 1023.0 hPa Calm   2.1 km/h 48% 0.0 mm
20:50 19.0 °C 8.0 °C 1023.0 hPa WSW 3.2 km/h 4.0 km/h 48% 0.0 mm
20:55 18.5 °C 8.0 °C 1023.0 hPa WSW 3.2 km/h 4.0 km/h 50% 0.0 mm
21:00 18.1 °C 8.0 °C 1023.0 hPa Calm   3.2 km/h 51% 0.0 mm
21:05 17.5 °C 8.0 °C 1023.0 hPa Calm   3.2 km/h 52% 0.0 mm
21:10 17.0 °C 8.0 °C 1023.0 hPa Calm     53% 0.0 mm
21:15 16.6 °C 8.0 °C 1023.0 hPa Calm     54% 0.0 mm
21:20 16.1 °C 7.0 °C 1023.0 hPa Calm     55% 0.0 mm
21:25 15.6 °C 7.0 °C 1023.0 hPa Calm     57% 0.0 mm
21:30 15.2 °C 7.0 °C 1023.0 hPa Calm     58% 0.0 mm
21:35 14.8 °C 8.0 °C 1023.0 hPa Calm     62% 0.0 mm
21:40 14.3 °C 8.0 °C 1023.0 hPa Calm     63% 0.0 mm
21:45 14.0 °C 7.0 °C 1023.0 hPa Calm     63% 0.0 mm
21:50 13.7 °C 7.0 °C 1023.0 hPa Calm     63% 0.0 mm
21:55 13.4 °C 7.0 °C 1023.0 hPa Calm     65% 0.0 mm
22:00 13.2 °C 7.0 °C 1023.0 hPa Calm     65% 0.0 mm
22:05 13.0 °C 7.0 °C 1023.0 hPa Calm     66% 0.0 mm
22:10 12.8 °C 7.0 °C 1023.0 hPa Calm     66% 0.0 mm
22:15 12.4 °C 6.0 °C 1023.0 hPa Calm     66% 0.0 mm
22:20 12.3 °C 6.0 °C 1023.0 hPa Calm     66% 0.0 mm
22:25 12.3 °C 6.0 °C 1023.0 hPa Calm     66% 0.0 mm
22:30 12.3 °C 7.0 °C 1023.0 hPa Calm     70% 0.0 mm
22:35 12.3 °C 7.0 °C 1023.0 hPa Calm     70% 0.0 mm
22:40 12.2 °C 7.0 °C 1023.0 hPa Calm     70% 0.0 mm
22:45 12.0 °C 7.0 °C 1023.0 hPa Calm     69% 0.0 mm
22:50 11.8 °C 6.0 °C 1023.0 hPa Calm     70% 0.0 mm
22:55 11.8 °C 6.0 °C 1023.0 hPa Calm     70% 0.0 mm
23:00 11.9 °C 8.0 °C 1023.0 hPa Calm     75% 0.0 mm
23:05 11.8 °C 7.0 °C 1023.0 hPa Calm     74% 0.0 mm
23:10 11.6 °C 7.0 °C 1023.0 hPa Calm     74% 0.0 mm
23:15 11.5 °C 7.0 °C 1023.0 hPa Calm     72% 0.0 mm
23:20 11.5 °C 7.0 °C 1023.0 hPa Calm     73% 0.0 mm
23:25 11.5 °C 7.0 °C 1023.0 hPa Calm     74% 0.0 mm
23:30 11.5 °C 8.0 °C 1023.0 hPa Calm     75% 0.0 mm
23:35 11.3 °C 7.0 °C 1023.0 hPa Calm     74% 0.0 mm
23:40 11.0 °C 6.0 °C 1023.0 hPa Calm     73% 0.0 mm
23:45 10.9 °C 7.0 °C 1023.0 hPa Calm     74% 0.0 mm
23:50 10.8 °C 6.0 °C 1023.0 hPa Calm     74% 0.0 mm
23:55 10.7 °C 6.0 °C 1023.0 hPa Calm     74% 0.0 mm
Données Historique de Météo Turbie

Mise a jour : 22/09/2019 18:54:21
Généré par Cumulus 1.9.4 (1099)